TimeAKDT,TemperatureF,Dew PointF,Humidity,Sea Level PressureIn,VisibilityMPH,Wind Direction,Wind SpeedMPH,Gust SpeedMPH,PrecipitationIn,Events,Conditions,WindDirDegrees,DateUTC
12:16 AM,33.8,30.2,87,30.00,10.0,East,8.1,-,N/A,,Overcast,90,2013-03-12 08:16:00
12:36 AM,33.8,30.2,87,30.00,10.0,East,5.8,-,N/A,,Overcast,90,2013-03-12 08:36:00
12:56 AM,33.8,30.2,87,29.99,10.0,East,9.2,-,N/A,,Overcast,80,2013-03-12 08:56:00
1:16 AM,33.8,30.2,87,29.98,10.0,East,8.1,-,N/A,,Overcast,80,2013-03-12 09:16:00
1:36 AM,33.8,30.2,87,29.97,10.0,East,6.9,-,N/A,,Mostly Cloudy,80,2013-03-12 09:36:00
1:56 AM,33.8,28.4,81,29.97,10.0,East,6.9,-,N/A,,Mostly Cloudy,80,2013-03-12 09:56:00
2:16 AM,33.8,28.4,81,29.96,10.0,East,6.9,-,N/A,,Overcast,80,2013-03-12 10:16:00
2:36 AM,33.8,28.4,81,29.96,10.0,East,6.9,-,N/A,,Overcast,80,2013-03-12 10:36:00
2:56 AM,33.8,28.4,81,29.95,10.0,ENE,6.9,-,N/A,,Overcast,70,2013-03-12 10:56:00
3:16 AM,33.8,28.4,81,29.94,10.0,ENE,6.9,-,N/A,,Overcast,70,2013-03-12 11:16:00
3:36 AM,33.8,28.4,81,29.94,10.0,ENE,5.8,-,N/A,,Overcast,60,2013-03-12 11:36:00
3:56 AM,33.8,28.4,81,29.92,10.0,ENE,5.8,-,N/A,,Overcast,60,2013-03-12 11:56:00
4:16 AM,33.8,28.4,81,29.92,10.0,ENE,6.9,-,N/A,,Overcast,60,2013-03-12 12:16:00
4:36 AM,33.8,28.4,81,29.91,10.0,NE,8.1,-,N/A,,Overcast,50,2013-03-12 12:36:00
4:56 AM,33.8,28.4,81,29.90,10.0,NE,8.1,-,N/A,,Overcast,50,2013-03-12 12:56:00
5:16 AM,33.8,28.4,81,29.89,10.0,NE,9.2,16.1,N/A,,Overcast,40,2013-03-12 13:16:00
5:36 AM,33.8,28.4,81,29.88,10.0,NE,11.5,16.1,N/A,,Overcast,50,2013-03-12 13:36:00
5:56 AM,33.8,28.4,81,29.88,10.0,NE,9.2,18.4,N/A,,Overcast,50,2013-03-12 13:56:00
6:16 AM,33.8,28.4,81,29.86,10.0,NE,12.7,18.4,N/A,,Overcast,50,2013-03-12 14:16:00
6:36 AM,33.8,28.4,81,29.85,10.0,NE,12.7,18.4,N/A,,Overcast,50,2013-03-12 14:36:00
6:56 AM,33.8,28.4,81,29.85,10.0,NE,10.4,-,N/A,,Overcast,50,2013-03-12 14:56:00
7:16 AM,33.8,28.4,81,29.84,10.0,NE,11.5,18.4,N/A,,Overcast,50,2013-03-12 15:16:00
7:36 AM,33.8,28.4,81,29.84,10.0,NE,12.7,18.4,N/A,,Overcast,50,2013-03-12 15:36:00
7:56 AM,33.8,28.4,81,29.83,10.0,NE,10.4,17.3,N/A,,Overcast,50,2013-03-12 15:56:00
8:16 AM,33.8,28.4,81,29.82,10.0,ENE,10.4,18.4,N/A,,Overcast,60,2013-03-12 16:16:00
8:36 AM,33.8,28.4,81,29.82,10.0,NE,12.7,19.6,N/A,,Overcast,40,2013-03-12 16:36:00
8:56 AM,33.8,28.4,81,29.81,10.0,NE,12.7,21.9,N/A,,Overcast,40,2013-03-12 16:56:00
9:16 AM,35.6,28.4,75,29.81,10.0,NE,9.2,17.3,N/A,,Scattered Clouds,40,2013-03-12 17:16:00
9:36 AM,35.6,28.4,75,29.80,10.0,NE,10.4,17.3,N/A,,Mostly Cloudy,40,2013-03-12 17:36:00
9:56 AM,35.6,26.6,70,29.81,10.0,NE,9.2,18.4,N/A,,Mostly Cloudy,50,2013-03-12 17:56:00
10:16 AM,35.6,26.6,70,29.80,10.0,NE,10.4,17.3,N/A,,Overcast,40,2013-03-12 18:16:00
10:36 AM,35.6,26.6,70,29.80,10.0,NE,8.1,17.3,N/A,,Overcast,40,2013-03-12 18:36:00
10:56 AM,35.6,26.6,70,29.80,10.0,NE,10.4,17.3,N/A,,Overcast,40,2013-03-12 18:56:00
11:16 AM,35.6,26.6,70,29.80,10.0,NE,6.9,-,N/A,,Overcast,50,2013-03-12 19:16:00
11:36 AM,35.6,26.6,70,29.80,10.0,NE,8.1,-,N/A,,Overcast,40,2013-03-12 19:36:00
11:56 AM,35.6,26.6,70,29.80,10.0,NE,8.1,-,N/A,,Overcast,40,2013-03-12 19:56:00
12:16 PM,35.6,24.8,65,29.80,10.0,NE,8.1,-,N/A,,Overcast,50,2013-03-12 20:16:00
12:36 PM,35.6,24.8,65,29.81,10.0,ENE,6.9,-,N/A,,Overcast,70,2013-03-12 20:36:00
12:56 PM,35.6,24.8,65,29.80,10.0,NE,9.2,-,N/A,,Overcast,50,2013-03-12 20:56:00
1:16 PM,35.6,24.8,65,29.79,10.0,ENE,8.1,-,N/A,,Mostly Cloudy,60,2013-03-12 21:16:00
1:36 PM,37.4,26.6,65,29.78,10.0,NE,5.8,-,N/A,,Overcast,40,2013-03-12 21:36:00
1:56 PM,37.4,24.8,60,29.77,10.0,NE,10.4,17.3,N/A,,Overcast,40,2013-03-12 21:56:00
2:16 PM,37.4,24.8,60,29.77,10.0,NE,8.1,-,N/A,,Overcast,40,2013-03-12 22:16:00
2:36 PM,37.4,24.8,60,29.77,10.0,ENE,10.4,-,N/A,,Mostly Cloudy,60,2013-03-12 22:36:00
2:56 PM,35.6,24.8,65,29.77,10.0,NE,6.9,-,N/A,,Overcast,50,2013-03-12 22:56:00
3:16 PM,35.6,24.8,65,29.76,10.0,NE,5.8,-,N/A,,Overcast,50,2013-03-12 23:16:00
3:36 PM,35.6,24.8,65,29.76,10.0,ENE,3.5,-,N/A,,Overcast,60,2013-03-12 23:36:00
3:56 PM,35.6,24.8,65,29.76,10.0,NE,3.5,-,N/A,,Overcast,50,2013-03-12 23:56:00
4:16 PM,35.6,24.8,65,29.76,9.0,NNE,6.9,-,N/A,,Overcast,20,2013-03-13 00:16:00
4:36 PM,33.8,24.8,70,29.75,3.0,North,6.9,-,N/A,,Overcast,10,2013-03-13 00:36:00
4:56 PM,33.8,26.6,75,29.75,5.0,NNE,9.2,-,N/A,,Overcast,30,2013-03-13 00:56:00
5:16 PM,32.0,26.6,80,29.74,1.0,NNE,5.8,-,N/A,,Overcast,20,2013-03-13 01:16:00
5:36 PM,32.0,26.6,80,29.74,1.5,NE,4.6,-,N/A,,Overcast,40,2013-03-13 01:36:00
5:56 PM,32.0,26.6,80,29.73,4.0,NE,9.2,-,N/A,,Overcast,40,2013-03-13 01:56:00
6:16 PM,32.0,26.6,80,29.73,9.0,NE,8.1,-,N/A,,Overcast,40,2013-03-13 02:16:00
6:36 PM,32.0,26.6,80,29.73,7.0,NE,10.4,-,N/A,,Overcast,40,2013-03-13 02:36:00
6:56 PM,32.0,26.6,80,29.72,10.0,NE,9.2,-,N/A,,Overcast,50,2013-03-13 02:56:00
7:16 PM,32.0,26.6,80,29.73,10.0,NE,11.5,17.3,N/A,,Overcast,40,2013-03-13 03:16:00
7:36 PM,32.0,26.6,80,29.73,8.0,NE,10.4,16.1,N/A,,Overcast,50,2013-03-13 03:36:00
7:56 PM,32.0,26.6,80,29.73,3.0,North,5.8,-,N/A,,Overcast,10,2013-03-13 03:56:00
8:16 PM,30.2,26.6,86,29.72,3.0,NNE,8.1,-,N/A,,Overcast,30,2013-03-13 04:16:00
8:36 PM,30.2,26.6,86,29.73,1.8,NE,6.9,18.4,N/A,,Overcast,50,2013-03-13 04:36:00
8:56 PM,30.2,26.6,86,29.72,2.5,NNE,8.1,-,N/A,,Overcast,20,2013-03-13 04:56:00
9:56 PM,30.2,26.6,86,29.72,5.0,North,8.1,-,N/A,,Overcast,10,2013-03-13 05:56:00
10:16 PM,30.2,26.6,86,29.72,4.0,North,6.9,-,N/A,,Overcast,10,2013-03-13 06:16:00
10:36 PM,30.2,26.6,86,29.73,2.5,NNE,5.8,-,N/A,,Overcast,20,2013-03-13 06:36:00
10:56 PM,30.2,26.6,86,29.73,1.5,North,5.8,-,N/A,,Overcast,350,2013-03-13 06:56:00
11:16 PM,30.2,26.6,86,29.73,2.5,North,4.6,-,N/A,,Overcast,10,2013-03-13 07:16:00
11:36 PM,30.2,24.8,80,29.74,6.0,NNW,4.6,-,N/A,,Overcast,340,2013-03-13 07:36:00
11:56 PM,30.2,24.8,80,29.74,7.0,NNW,4.6,-,N/A,,Overcast,330,2013-03-13 07:56:00